Theta_e
322 322 321 321 321 321 321 321 321 321 321 321 321 322 324 325 324 322 309 321 337 355 355 347 349 346 344 337 340 342 323 313 315 317 319 326 324 329 331 329 330 333 335 340 346
322 321 320 320 321 321 321 320 320 321 320 320 320 322 324 324 321 313 329 347 355 356 347 344 341 344 342 336 334 330 324 322 321 323 323 325 325 326 326 326 327 334 340 344 345
321 321 321 321 321 320 320 320 320 319 320 320 320 322 324 324 317 314 341 348 357 356 350 350 347 343 334 335 334 331 323 328 323 324 328 325 325 327 324 322 327 330 337 341 343
320 320 320 320 320 320 319 320 319 319 318 319 320 323 324 320 307 321 352 358 359 350 342 343 341 332 329 328 334 326 329 329 322 327 327 325 328 323 325 326 331 337 340 341 341
320 320 320 320 320 319 319 319 318 318 317 318 322 323 320 312 314 336 357 357 348 331 334 336 332 331 326 329 330 326 325 324 325 327 327 328 325 323 325 330 337 339 340 339 341
319 319 319 319 319 319 319 318 317 317 317 321 322 323 316 312 325 344 342 333 326 327 333 338 329 334 329 329 328 329 324 322 326 326 327 325 324 325 326 332 334 337 337 339 340
319 319 319 318 319 319 319 318 317 316 318 322 323 323 313 312 327 337 331 322 327 332 337 336 328 326 332 329 334 330 321 323 323 323 323 326 319 320 328 331 331 334 336 338 340
319 319 319 318 318 318 318 318 318 319 322 323 323 320 307 318 329 326 326 323 329 333 336 330 327 334 334 335 328 325 324 317 322 323 323 322 315 321 329 328 328 331 333 335 337
318 318 318 318 318 317 316 317 319 321 324 323 319 314 307 324 319 321 326 320 324 327 326 326 327 331 330 325 322 322 317 318 320 327 322 321 318 323 328 328 327 329 331 333 335
318 318 317 317 317 316 316 318 323 323 323 324 322 310 313 315 319 320 324 323 319 316 313 316 320 323 326 322 310 314 315 316 318 324 325 320 319 322 326 327 327 328 330 331 332
317 317 317 317 316 315 317 320 314 312 313 306 309 310 313 318 320 317 321 321 315 312 310 309 311 311 317 323 319 318 315 313 318 325 324 323 324 323 325 326 326 327 328 329 331
317 317 317 316 315 315 314 314 314 316 311 312 311 312 315 317 312 315 318 314 311 308 306 308 308 312 313 320 319 316 313 313 318 324 324 321 321 326 324 324 326 327 328 329 330
315 315 315 315 314 314 313 314 318 317 310 309 312 311 313 315 311 313 317 311 307 305 305 306 307 308 308 306 306 309 310 312 315 323 323 321 319 321 326 325 326 327 329 330 330
314 314 313 313 314 319 318 319 321 318 307 307 309 312 312 313 310 314 315 312 306 306 304 304 306 306 306 306 313 309 319 317 318 316 312 320 306 319 323 323 323 325 326 328 330
313 312 311 311 310 316 318 319 316 314 298 308 309 314 311 311 311 310 313 311 305 304 304 304 305 305 305 307 318 311 318 318 319 317 315 314 311 315 321 322 325 324 326 328 331
313 311 311 312 313 317 317 316 315 304 297 306 307 307 308 308 308 309 311 312 309 305 304 304 307 307 307 309 318 313 308 310 314 316 304 310 311 308 315 320 325 330 328 329 330
312 310 309 311 312 315 318 315 304 300 307 303 305 305 306 306 307 308 307 306 304 300 301 303 305 308 309 306 307 307 305 301 299 301 299 307 311 311 318 320 323 326 330 331 332
310 310 311 312 314 315 316 311 297 302 305 309 308 303 304 305 305 305 305 304 304 304 303 300 298 305 309 308 307 305 306 301 294 296 299 303 302 308 314 314 324 329 330 334 332
309 311 313 315 316 315 314 301 301 304 307 306 306 302 301 303 304 304 304 304 306 307 302 301 301 307 307 308 308 303 302 305 299 296 298 302 304 308 313 318 329 331 330 332 334
311 313 313 314 316 316 311 299 305 308 309 308 304 304 300 304 303 303 304 305 304 306 310 305 301 305 307 308 306 306 305 301 302 297 295 299 299 303 310 312 317 330 330 333 334
312 313 314 314 317 313 306 304 306 310 309 307 305 304 305 305 305 302 303 309 310 305 307 306 304 304 307 306 306 304 303 300 302 301 298 297 301 311 314 319 319 324 328 333 334
311 309 314 316 311 305 306 305 302 305 307 305 307 306 304 304 304 303 304 309 313 309 305 306 304 302 304 307 307 307 307 306 301 300 298 298 301 312 314 318 319 316 324 328 333
308 308 315 314 306 303 304 304 303 303 303 304 304 305 306 305 304 305 307 312 314 314 309 306 303 301 303 305 304 304 303 305 302 302 302 298 302 310 311 314 317 319 321 327 334
308 306 308 308 304 303 302 300 301 306 304 304 304 307 306 305 309 306 308 312 313 314 314 313 305 306 301 305 305 304 305 302 303 300 302 301 305 311 313 312 314 318 321 325 333
305 301 302 300 302 301 301 300 300 301 306 306 304 304 304 303 305 307 309 310 312 315 313 311 306 302 305 305 305 306 306 306 301 304 301 305 305 309 311 312 314 316 324 328 332
304 303 302 300 299 299 299 300 300 301 303 302 302 304 304 305 306 305 307 308 308 311 311 310 306 306 305 308 306 303 306 307 307 306 304 303 304 314 319 320 321 322 326 328 332
308 307 302 297 298 298 300 299 300 302 303 306 305 304 302 306 308 309 310 310 309 308 307 307 308 305 301 305 305 302 307 307 307 308 306 302 309 316 317 318 321 326 328 330 333
Wind_Speed
14 14 14 14 14 12 12 11 10 10 9 10 12 13 11 11 12 3 4 2 5 10 4 6 3 2 4 2 1 2 3 5 5 8 6 9 9 5 2 11 8 3 8 10 14
14 14 14 14 14 13 12 12 11 10 9 9 11 13 11 10 2 4 2 10 11 11 5 4 3 4 2 2 1 1 3 4 3 8 11 12 12 8 9 11 4 7 13 14 14
14 15 15 14 13 13 12 11 11 10 9 8 9 13 9 9 3 1 6 10 11 8 1 3 2 3 1 1 3 1 3 2 2 11 19 15 8 4 14 9 10 14 17 16 12
15 15 15 15 14 13 12 11 10 10 9 8 8 12 9 3 2 2 7 11 9 5 5 3 2 1 3 5 4 2 6 3 8 12 15 16 11 8 6 2 6 17 17 15 14
17 16 15 15 15 13 11 11 9 9 9 9 7 8 4 1 1 4 8 11 9 3 3 1 4 1 5 3 2 8 8 4 12 13 14 13 8 8 3 7 15 14 15 15 14
17 17 16 16 15 14 11 9 9 8 9 10 7 7 3 2 3 2 5 6 4 4 2 1 5 4 2 3 5 6 11 12 11 13 11 10 7 6 4 12 15 15 15 14 15
18 17 17 16 16 15 12 9 8 7 9 9 7 4 2 3 3 5 5 2 1 1 2 1 2 1 1 2 4 3 12 10 7 7 5 13 4 1 13 15 16 15 14 14 15
18 18 17 17 16 15 13 10 7 7 7 6 5 3 1 3 6 5 2 2 2 3 3 6 3 4 3 1 3 4 2 2 5 5 7 5 2 4 16 16 16 16 14 14 16
19 18 17 16 16 14 11 11 6 2 3 2 2 3 2 3 3 5 5 2 1 2 3 4 2 4 1 3 3 5 2 1 1 3 6 6 1 9 16 15 15 16 15 15 15
19 18 18 16 15 12 11 3 4 3 1 3 3 3 2 2 3 3 3 2 2 2 2 3 2 2 2 3 3 2 2 2 3 3 4 6 9 8 17 17 17 17 15 15 16
20 20 19 18 15 11 2 3 3 2 1 2 1 1 2 1 5 2 2 3 1 2 5 2 5 6 5 3 2 1 2 6 2 5 6 10 9 10 17 17 18 17 17 17 19
23 21 19 18 17 3 3 2 2 3 3 2 4 4 4 3 3 3 4 5 2 5 1 3 5 7 2 3 4 7 8 8 7 1 6 5 11 11 18 23 22 20 19 20 19
22 22 19 16 12 2 3 2 4 1 1 1 3 3 2 6 4 9 9 3 3 4 5 6 3 5 2 2 5 4 7 3 2 3 2 5 10 7 10 16 18 19 18 17 19
22 21 18 19 2 0 3 2 4 4 1 2 3 2 4 4 3 1 5 2 2 7 3 5 0 4 2 3 3 4 2 2 6 3 2 3 5 4 8 14 20 21 21 20 19
23 20 17 9 3 3 3 5 5 4 2 2 3 2 2 3 5 3 0 2 4 5 4 2 3 5 4 2 3 4 3 3 3 3 4 3 5 2 2 10 18 21 22 22 20
24 20 16 3 2 3 5 1 2 3 3 3 3 5 6 1 2 3 4 3 2 4 0 3 2 3 2 2 3 8 4 6 4 1 5 1 5 4 4 5 4 14 21 22 20
26 20 6 2 1 5 3 2 2 3 1 2 2 3 5 4 4 4 8 9 4 4 4 1 7 3 4 4 4 4 1 2 3 3 6 4 6 10 13 10 9 9 16 20 22
26 13 7 3 3 6 2 2 3 1 1 2 2 3 6 7 3 3 7 8 4 2 0 4 5 8 6 13 6 5 5 4 5 5 7 2 6 6 7 10 8 10 14 15 19
17 2 2 3 3 3 2 3 1 2 1 1 3 3 4 3 2 4 6 5 7 14 7 4 3 2 3 1 3 6 5 2 3 2 4 4 5 13 13 7 4 6 4 12 16
1 1 4 6 0 0 2 2 1 2 3 1 2 1 4 5 7 6 6 2 2 10 8 5 4 0 2 4 7 3 8 4 1 6 11 4 5 8 14 15 9 5 3 9 12
1 2 4 5 2 3 1 1 2 1 2 1 2 2 2 2 3 4 3 4 4 3 5 5 5 4 3 4 4 4 3 4 0 3 10 10 5 6 8 7 6 6 5 5 11
2 3 5 2 3 2 2 0 4 4 7 3 3 3 1 1 2 2 3 1 9 3 5 3 3 5 7 2 3 2 8 6 6 5 2 5 12 5 8 6 6 11 10 9 9
3 2 2 4 3 2 1 2 5 5 6 5 3 4 2 2 2 1 2 0 7 3 2 6 4 4 3 5 3 4 3 4 3 2 12 11 11 1 3 7 7 11 10 9 7
1 2 4 5 3 3 2 2 3 5 4 3 4 2 2 2 5 2 2 4 5 6 5 4 3 6 9 6 2 5 4 4 7 7 13 11 19 12 15 10 13 13 12 8 8
5 3 2 3 5 5 2 2 2 2 5 7 3 6 3 0 1 1 1 3 1 7 3 2 4 3 6 7 4 8 10 9 9 14 13 18 19 13 9 12 13 14 14 11 10
3 1 2 3 2 1 5 4 2 3 5 3 3 6 3 1 2 1 5 0 2 2 2 2 1 1 5 7 7 10 12 14 14 15 15 18 22 6 11 9 12 14 16 14 11
3 1 3 3 2 1 3 2 2 4 2 5 5 4 3 2 7 9 8 10 5 5 4 3 2 3 11 4 10 14 11 13 11 3 5 11 7 10 11 11 13 16 14 16 15
Wind_Direction
347 346 342 337 333 330 326 325 323 320 320 321 316 318 328 327 309 184 235 120 165 154 132 143 191 145 183 154 188 195 87 112 138 175 139 146 127 139 116 139 131 54 134 126 143
346 341 340 336 331 332 324 320 318 316 315 316 314 311 328 333 278 247 168 144 135 147 137 179 243 177 215 127 135 323 64 56 157 164 155 159 150 146 149 154 119 97 105 134 151
349 341 336 335 337 333 324 320 316 314 313 316 317 308 328 320 224 115 115 143 150 158 170 238 263 242 164 148 25 48 48 3 18 180 152 150 145 136 152 184 185 168 150 155 163
348 344 339 336 335 334 329 320 318 315 310 313 310 308 321 282 138 72 110 140 149 170 201 215 280 26 48 56 24 65 11 350 119 140 148 154 140 141 161 316 182 155 157 158 173
345 343 340 336 333 332 329 321 317 311 310 310 310 307 288 189 19 354 126 140 160 206 182 102 43 321 41 27 79 37 13 62 121 132 136 140 149 155 216 125 136 145 163 171 181
342 341 339 336 333 330 325 320 314 311 307 306 310 307 242 159 359 143 138 137 166 193 160 46 9 350 24 14 47 68 82 101 119 123 139 143 141 154 165 147 147 161 178 184 191
340 337 336 335 333 330 324 320 311 304 299 304 304 287 243 88 304 139 162 213 129 170 35 33 358 334 357 65 13 96 99 106 121 127 124 131 146 221 153 164 166 181 187 194 205
335 334 335 335 333 329 326 319 302 287 294 285 295 270 114 353 138 144 219 245 249 228 296 322 24 93 8 118 44 41 52 145 145 155 157 240 119 159 162 170 178 188 199 205 210
334 333 334 334 332 327 325 315 291 242 263 220 276 298 121 149 199 171 193 276 160 202 269 270 56 46 139 131 120 44 10 337 169 190 163 228 295 165 173 188 188 194 202 212 213
333 333 334 334 330 321 317 256 123 128 196 220 249 247 135 171 150 149 184 189 178 137 92 32 55 185 108 208 81 156 250 272 219 153 199 204 247 170 184 196 202 200 209 216 221
335 335 335 334 334 314 218 167 212 142 178 267 53 36 310 60 147 153 180 157 99 102 206 80 220 244 270 217 122 127 258 286 281 193 215 236 245 214 195 202 210 212 211 218 225
333 335 334 333 340 44 224 208 143 46 305 222 250 277 256 294 126 133 176 176 162 196 165 220 260 240 348 176 249 261 278 273 268 168 231 235 252 232 201 207 211 210 214 218 226
334 334 333 330 328 248 252 230 96 175 277 292 205 215 193 180 199 174 178 137 135 170 192 240 76 119 263 254 246 260 241 233 356 114 176 283 265 214 216 218 217 223 226 227 227
335 335 332 328 256 92 232 94 313 207 354 140 209 200 147 173 163 83 170 137 122 214 169 266 335 225 238 269 235 321 245 161 159 237 339 327 320 273 218 222 220 220 219 225 227
333 333 330 323 321 215 70 335 136 215 150 128 138 102 124 192 127 121 225 87 167 156 196 182 180 158 238 261 186 20 62 124 117 125 287 193 259 270 203 233 231 225 222 223 222
328 327 326 163 221 278 320 227 228 240 128 132 130 157 155 147 96 115 164 73 94 141 198 273 330 257 264 145 163 154 122 86 86 108 254 351 269 289 231 230 228 223 221 223 219
325 319 275 277 71 330 292 173 222 231 300 106 127 165 182 157 153 152 170 191 200 184 223 208 229 237 203 245 150 191 234 281 244 222 290 12 234 270 275 269 260 250 225 220 212
326 316 184 241 286 333 203 131 219 131 223 50 82 112 191 168 170 142 149 199 201 150 119 230 210 196 174 219 234 185 223 240 277 280 315 160 242 262 281 301 286 263 244 226 214
318 157 154 334 226 197 143 193 223 193 19 343 114 156 177 163 206 179 204 212 214 187 213 188 247 303 225 129 269 147 196 12 183 109 258 272 266 271 276 298 319 332 223 217 206
317 70 39 329 137 178 109 161 153 260 330 205 169 218 160 153 182 194 182 129 243 208 225 177 279 177 71 148 70 257 136 181 213 263 276 205 266 274 294 300 329 309 204 202 211
265 92 20 347 258 61 158 159 250 323 339 262 139 124 97 145 206 194 139 50 354 75 198 161 237 181 278 219 218 154 196 67 248 286 272 286 264 215 266 308 287 328 325 245 215
5 86 11 287 63 21 112 26 348 358 20 45 76 67 72 78 154 172 136 23 350 195 158 171 190 238 250 111 343 267 257 242 254 227 260 292 272 237 246 273 291 300 299 297 264
56 3 9 288 123 96 71 90 43 30 30 18 46 19 6 62 190 88 112 114 8 55 139 170 199 256 243 146 129 229 182 241 274 263 236 253 265 163 277 268 278 285 295 296 268
51 104 27 52 19 80 104 49 103 36 72 40 32 57 51 58 25 91 94 24 356 37 36 197 179 242 255 295 58 259 239 218 238 269 270 242 275 266 271 304 302 296 301 297 278
15 74 3 54 52 63 25 15 78 32 18 20 82 49 22 328 29 102 39 333 64 2 67 6 256 225 262 262 268 264 264 270 236 258 268 283 273 280 331 308 311 312 311 308 277
57 69 78 68 346 57 9 37 51 3 347 18 58 355 18 207 31 32 347 91 342 354 44 7 243 290 269 268 246 260 269 269 265 262 263 270 276 13 319 317 326 331 326 310 295
28 55 298 4 49 135 53 53 70 335 67 73 1 334 327 84 311 290 279 284 286 317 325 308 239 255 266 299 299 264 243 258 269 242 276 256 324 335 332 340 349 343 338 324 320